KB3YPI Weather Reports


time (UTC)temp
C
wind
direction
speed
KPH
gust
KPH
rain 1hr
cm
rain 24hr
cm
rain mn
cm
humidity
%
barometer
mb
20260507070021 11 292 0.0 0.0 0.00 0.00 0.00 65 1010.3
20260507065521 11 292 0.0 0.0 0.00 0.00 0.00 66 1010.2
20260507065019 11 291 0.0 0.0 0.00 0.00 0.00 66 1010.3
20260507064519 11 273 0.0 0.0 0.00 0.00 0.00 67 1010.3
20260507064019 11 265 0.0 0.0 0.00 0.00 0.00 68 1010.2
20260507063517 11 265 0.0 0.0 0.00 0.00 0.00 70 1010.2
20260507063029 11 296 0.0 0.0 0.00 0.00 0.00 71 1010.3
20260507062516 11 296 0.0 0.0 0.00 0.00 0.00 71 1010.2
20260507062015 11 313 0.0 0.0 0.00 0.00 0.00 72 1010.3
20260507061514 11 5 0.0 0.0 0.00 0.00 0.00 74 1010.3
20260507061016 11 299 0.0 0.0 0.00 0.00 0.00 74 1010.3
20260507060513 11 310 0.0 0.0 0.00 0.00 0.00 74 1010.2
20260507060020 11 300 0.0 0.0 0.00 0.00 0.00 76 1010.2
20260507055510 11 46 0.0 0.0 0.00 0.00 0.00 78 1010.2
20260507055012 11 350 0.0 0.0 0.00 0.00 0.00 80 1010.1
20260507054509 11 350 0.0 0.0 0.00 0.00 0.00 81 1009.9
20260507054109 11 330 0.0 0.0 0.00 0.00 0.00 81 1010.1
20260507053508 12 255 0.0 0.0 0.00 0.00 0.00 82 1010.1
20260507053007 12 205 0.0 0.0 0.00 0.00 0.00 83 1010.2
20260507052506 12 302 0.0 0.0 0.00 0.00 0.00 82 1010.1
20260507052007 12 302 0.0 0.0 0.00 0.00 0.00 82 1010.1
20260507051508 12 298 0.0 0.0 0.00 0.00 0.00 83 1010.2
20260507051005 12 332 0.0 0.0 0.00 0.00 0.00 83 1010.2
20260507050505 12 332 0.0 0.0 0.00 0.00 0.00 83 1010.2
20260507050002 12 332 0.0 0.0 0.00 0.00 0.00 83 1010.0
20260507045502 12 279 0.0 0.0 0.00 0.00 0.00 83 1009.9
20260507045001 12 279 0.0 0.0 0.00 0.00 0.00 82 1010.3
20260507044600 12 304 0.0 0.0 0.00 0.00 0.00 82 1010.2
20260507044100 12 304 0.0 0.0 0.00 0.00 0.00 83 1010.3
20260507043558 12 302 0.0 0.0 0.00 0.00 0.00 83 1010.5
20260507043057 12 307 0.0 0.0 0.00 0.00 0.00 83 1010.3
20260507042556 12 313 0.0 0.0 0.00 0.00 0.00 82 1010.1
20260507042058 12 303 0.0 0.0 0.00 0.00 0.00 82 1010.1
20260507041555 12 324 0.0 0.0 0.00 0.00 0.00 82 1010.1
20260507041054 12 327 0.0 0.0 0.00 0.00 0.00 81 1009.9
20260507040553 12 332 0.0 0.0 0.00 0.00 0.00 82 1010.2
20260507040051 12 347 0.0 0.0 0.00 0.00 0.00 82 1010.1
20260507035521 12 347 0.0 0.0 0.00 0.00 0.00 80 1010.2
20260507035023 13 290 0.0 0.0 0.00 0.00 0.00 79 1010.2
20260507034530 13 288 0.0 0.0 0.00 0.00 0.00 80 1009.8
20260507034019 13 287 0.0 0.0 0.00 0.00 0.00 79 1010.0
20260507033521 13 284 0.0 0.0 0.00 0.00 0.00 78 1009.9
20260507033018 13 315 0.0 0.0 0.00 0.00 0.00 78 1009.8
20260507032548 13 294 0.0 0.0 0.00 0.00 0.00 79 1009.8
20260507032047 13 325 0.0 0.0 0.00 0.00 0.00 79 1009.4
20260507031547 13 311 0.0 0.0 0.00 0.00 0.00 78 1009.2
20260507031046 13 294 0.0 0.0 0.00 0.00 0.00 78 1009.4
20260507030545 13 300 0.0 0.0 0.00 0.00 0.00 80 1009.6
20260507030046 13 281 0.0 0.0 0.00 0.00 0.00 79 1009.6
20260507025513 13 346 0.0 0.0 0.00 0.00 0.00 79 1009.6
20260507025014 13 9 0.0 0.0 0.00 0.00 0.00 80 1009.5
20260507024516 13 346 0.0 0.0 0.00 0.00 0.00 80 1009.4
20260507024017 13 302 0.0 0.0 0.00 0.00 0.00 79 1009.6
20260507023513 13 161 0.0 0.0 0.00 0.00 0.00 80 1009.5
20260507023012 13 311 0.0 0.0 0.00 0.00 0.00 79 1009.5
20260507022509 13 281 0.0 0.0 0.00 0.00 0.00 79 1009.6
20260507022013 13 333 0.0 0.0 0.00 0.00 0.00 80 1009.4
20260507021508 13 320 0.0 0.0 0.00 0.00 0.00 79 1009.2
20260507021009 13 263 0.0 0.0 0.00 0.00 0.00 79 1009.2
20260507020508 13 162 0.0 0.0 0.00 0.00 0.00 80 1009.2
20260507020023 13 310 0.0 0.0 0.00 0.00 0.00 81 1009.3
20260507015506 13 320 0.0 0.0 0.00 0.00 0.00 82 1009.3
20260507015005 14 317 0.0 0.0 0.00 0.00 0.00 82 1009.3
20260507014505 14 212 0.0 0.0 0.00 0.00 0.00 81 1009.3
20260507014005 14 293 0.0 0.0 0.00 0.00 0.00 81 1009.3
20260507013503 14 273 0.0 0.0 0.00 0.00 0.00 81 1009.4
20260507013004 14 300 0.0 0.0 0.00 0.00 0.00 81 1009.5
20260507012532 14 294 0.0 0.0 0.00 0.00 0.00 81 1009.3
20260507012033 14 247 0.0 0.0 0.00 0.00 0.00 80 1009.4
20260507011530 14 221 0.0 0.0 0.00 0.00 0.00 80 1009.3
20260507011033 14 260 0.0 0.0 0.00 0.00 0.00 81 1009.3
20260507010532 14 283 0.0 0.0 0.00 0.00 0.00 81 1009.1
20260507010035 14 289 0.0 0.0 0.00 0.00 0.00 81 1008.9
20260507005629 15 225 0.0 0.0 0.00 0.00 0.00 82 1008.9
20260507005058 15 173 0.0 0.0 0.00 0.00 0.00 81 1009.0
20260507004556 15 267 0.0 0.0 0.00 0.00 0.00 82 1008.8
20260507004057 15 307 0.0 0.0 0.00 0.00 0.00 82 1008.9
20260507003554 15 24 0.0 0.0 0.00 0.00 0.00 82 1008.8
20260507003054 15 205 0.0 0.0 0.00 0.00 0.00 83 1008.8
20260507002553 15 256 0.0 0.0 0.00 0.00 0.00 83 1008.6
20260507002050 15 269 0.0 0.0 0.00 0.00 0.00 83 1008.3
20260507001552 15 318 0.0 0.0 0.00 0.00 0.00 83 1008.2
20260507001047 15 234 0.0 0.0 0.00 0.00 0.00 84 1008.1
20260507000549 15 263 0.0 0.0 0.00 0.00 0.00 83 1008.0
20260507000046 15 346 0.0 0.0 0.00 0.00 0.00 83 1007.8
20260506235545 15 316 0.0 0.0 0.00 0.00 0.00 84 1007.7
20260506235044 15 317 0.0 0.0 0.00 0.00 0.00 85 1007.6
20260506234545 15 5 0.0 0.0 0.00 0.00 0.00 85 1007.5
20260506234043 15 287 0.0 0.0 0.00 0.00 0.00 85 1007.2
20260506233546 15 348 0.0 0.0 0.00 0.00 0.00 85 1007.1
20260506233056 15 190 0.0 0.0 0.00 0.00 0.00 86 1007.0
20260506232542 15 258 0.0 0.0 0.00 0.00 0.00 86 1006.9
20260506232011 15 265 0.0 0.0 0.00 0.00 0.00 86 1007.0
20260506231509 16 281 0.0 0.0 0.00 0.00 0.00 86 1006.9
20260506231008 16 300 0.0 0.0 0.00 0.00 0.00 88 1007.1
20260506230506 16 294 0.0 0.0 0.00 0.00 0.00 88 1006.9
20260506230005 16 275 0.0 0.0 0.00 0.00 0.00 89 1006.9
20260506225504 16 256 0.0 0.0 0.00 0.00 0.00 89 1006.9
20260506225001 16 341 0.0 0.0 0.00 0.00 0.00 90 1006.8
20260506224503 17 276 0.0 0.0 0.00 0.00 0.00 90 1006.7
20260506224100 17 306 0.0 0.0 0.00 0.00 0.00 90 1006.7
20260506223600 17 301 0.0 0.0 0.00 0.00 0.00 91 1006.6
20260506223100 17 276 0.0 0.0 0.00 0.00 0.00 92 1006.5
20260506222600 17 267 0.0 0.0 0.00 0.00 0.00 92 1006.5
20260506222100 17 267 0.0 0.0 0.00 0.00 0.00 90 1006.3
20260506221601 17 266 0.0 0.0 0.00 0.00 0.00 89 1006.3
20260506221100 18 268 0.0 0.0 0.00 0.00 0.00 89 1006.3
20260506220602 18 289 0.0 0.0 0.00 0.00 0.00 89 1006.3
20260506220101 18 286 0.0 0.0 0.00 0.00 0.00 88 1006.3
20260506215602 18 284 0.0 0.0 0.00 0.00 0.00 87 1006.1
20260506215028 18 169 0.0 0.0 0.00 0.00 0.00 86 1006.0
20260506214528 18 169 0.0 0.0 0.00 0.00 0.00 85 1005.9
20260506214030 18 177 0.0 0.0 0.00 0.00 0.00 85 1005.8
20260506213527 19 175 0.0 0.0 0.00 0.00 0.00 84 1005.7
20260506213028 19 175 0.0 0.0 0.00 0.00 0.00 84 1005.6
20260506212528 19 171 0.0 0.0 0.00 0.00 0.00 85 1005.5
20260506212101 19 167 0.0 0.0 0.00 0.00 0.00 85 1005.5
20260506211609 19 167 0.0 0.0 0.00 0.00 0.00 85 1005.5
20260506211057 19 171 0.0 0.0 0.00 0.00 0.00 86 1005.4
20260506210557 19 171 0.0 0.0 0.00 0.00 0.00 86 1005.4
20260506210057 19 224 0.0 0.0 0.00 0.00 0.00 87 1005.5
20260506205556 18 224 0.0 0.0 0.00 0.00 0.00 86 1005.5
20260506205026 18 225 0.0 0.0 0.00 0.00 0.00 86 1005.4
20260506204526 19 169 0.0 0.0 0.00 0.00 0.00 86 1005.4
20260506204026 19 167 0.0 0.0 0.00 0.00 0.00 85 1005.4
20260506203529 19 281 0.0 0.0 0.00 0.00 0.00 85 1005.4
20260506203026 19 336 0.0 0.0 0.00 0.00 0.00 85 1005.4
20260506202526 19 248 0.0 0.0 0.00 0.00 0.00 85 1005.4
20260506202022 19 257 0.0 0.0 0.00 0.00 0.00 86 1005.3
20260506201525 19 279 0.0 0.0 0.00 0.00 0.00 87 1005.3
20260506201024 18 197 0.0 0.0 0.00 0.00 0.00 87 1005.3
20260506200521 18 173 0.0 0.0 0.00 0.00 0.00 87 1005.4
20260506200034 18 180 0.0 0.0 0.00 0.00 0.00 87 1005.4
20260506195519 18 264 0.0 0.0 0.00 0.00 0.00 90 1005.4
20260506195018 18 223 0.0 0.0 0.00 0.00 0.00 91 1005.4
20260506194517 17 225 0.0 0.0 0.00 0.00 0.00 91 1005.5
20260506194016 17 215 0.0 0.0 0.00 0.00 0.00 91 1005.6
20260506193514 -17 0.0 0.0 0.00 0.00 0.00 1005.6
20260506193013 -17 0.0 0.0 0.00 0.00 0.00 1005.7
20260506192511 -17 0.0 0.0 0.00 0.00 0.00 1005.7
20260506192010 -17 0.0 0.0 0.00 0.00 0.00 1005.7
20260506191539 -17 0.0 0.0 0.00 0.00 0.00 1005.7
20260506191037 -17 0.0 0.0 0.00 0.00 0.00 1005.8
20260506190535 -17 0.0 0.0 0.00 0.00 0.00 1005.8
20260506190034 -17 0.0 0.0 0.00 0.00 0.00 1005.8
20260506185533 -17 0.0 0.0 0.00 0.00 0.00 1005.8
20260506185031 -17 0.0 0.0 0.00 0.00 0.00 1005.9
20260506184527 -17 0.0 0.0 0.00 0.00 0.00 1006.0
20260506184029 -17 0.0 0.0 0.00 0.00 0.00 1006.0
20260506183526 -17 0.0 0.0 0.00 0.00 0.00 1006.1
20260506183024 -17 0.0 0.0 0.00 0.00 0.00 1006.0
20260506182521 -17 0.0 0.0 0.00 0.00 0.00 1006.0
20260506182020 -17 0.0 0.0 0.00 0.00 0.00 1006.0
20260506181519 -17 0.0 0.0 0.00 0.00 0.00 1006.1
20260506181016 -17 0.0 0.0 0.00 0.00 0.00 1006.1
20260506180515 -17 0.0 0.0 0.00 0.00 0.00 1006.2
20260506180018 -17 0.0 0.0 0.00 0.00 0.00 1006.2
20260506175512 -17 0.0 0.0 0.00 0.00 0.00 1006.2
20260506175010 -17 0.0 0.0 0.00 0.00 0.00 1006.2
20260506174507 -17 0.0 0.0 0.00 0.00 0.00 1006.2
20260506174005 -17 0.0 0.0 0.00 0.00 0.00 1006.2
20260506173504 -17 0.0 0.0 0.00 0.00 0.00 1006.2
20260506173003 -17 0.0 0.0 0.00 0.00 0.00 1006.2
20260506172501 -17 0.0 0.0 0.00 0.00 0.00 1006.2
20260506172059 -17 0.0 0.0 0.00 0.00 0.00 1006.2
20260506171609 -17 0.0 0.0 0.00 0.00 0.00 1006.2
20260506171057 -17 0.0 0.0 0.00 0.00 0.00 1006.3
20260506170555 -17 0.0 0.0 0.00 0.00 0.00 1006.2
20260506170100 -17 0.0 0.0 0.00 0.00 0.00 1006.3
20260506165552 -17 0.0 0.0 0.00 0.00 0.00 1006.3
20260506165050 -17 0.0 0.0 0.00 0.00 0.00 1006.3
20260506164519 -17 0.0 0.0 0.00 0.00 0.00 1006.3
20260506164017 -17 0.0 0.0 0.00 0.00 0.00 1006.3
20260506163516 -17 0.0 0.0 0.00 0.00 0.00 1006.3
20260506163015 -17 0.0 0.0 0.00 0.00 0.00 1006.4
20260506162514 -17 0.0 0.0 0.00 0.00 0.00 1006.3
20260506162012 -17 0.0 0.0 0.00 0.00 0.00 1006.4
20260506161508 -17 0.0 0.0 0.00 0.00 0.00 1006.4
20260506161007 -17 0.0 0.0 0.00 0.00 0.00 1006.4
20260506160505 -17 0.0 0.0 0.00 0.00 0.00 1006.3
20260506160010 -17 0.0 0.0 0.00 0.00 0.00 1006.3
20260506155502 -17 0.0 0.0 0.00 0.00 0.00 1006.3
20260506155001 -17 0.0 0.0 0.00 0.00 0.00 1006.5
20260506154559 -17 0.0 0.0 0.00 0.00 0.00 1006.4
20260506154058 -17 0.0 0.0 0.00 0.00 0.00 1006.4
20260506153556 -17 0.0 0.0 0.00 0.00 0.00 1006.3
20260506153056 -17 0.0 0.0 0.00 0.00 0.00 1006.3
20260506152553 -17 0.0 0.0 0.00 0.00 0.00 1006.2
20260506152052 -17 0.0 0.0 0.00 0.00 0.00 1006.2
20260506151550 -17 0.0 0.0 0.00 0.00 0.00 1006.2
20260506151046 -17 0.0 0.0 0.00 0.00 0.00 1006.2
20260506150544 -17 0.0 0.0 0.00 0.00 0.00 1006.4
20260506150043 -17 0.0 0.0 0.00 0.00 0.00 1006.4
20260506145544 -17 0.0 0.0 0.00 0.00 0.00 1006.5
20260506145041 -17 0.0 0.0 0.00 0.00 0.00 1006.5
20260506144539 -17 0.0 0.0 0.00 0.00 0.00 1006.6
20260506144037 -17 0.0 0.0 0.00 0.00 0.00 1006.8
20260506143536 -17 0.0 0.0 0.00 0.00 0.00 1006.9
20260506143036 -17 0.0 0.0 0.00 0.00 0.00 1007.1
20260506142534 -17 0.0 0.0 0.00 0.00 0.00 1007.1
20260506142031 -17 0.0 0.0 0.00 0.00 0.00 1007.1
20260506141530 -17 0.0 0.0 0.00 0.00 0.00 1007.0
20260506141026 -17 0.0 0.0 0.00 0.00 0.00 1006.9
20260506140525 -17 0.0 0.0 0.00 0.00 0.00 1006.8
20260506140023 -17 0.0 0.0 0.00 0.00 0.00 1006.7
20260506135521 -17 0.0 0.0 0.00 0.00 0.00 1006.6
20260506135020 -17 0.0 0.0 0.00 0.00 0.00 1006.5
20260506134520 -17 0.0 0.0 0.00 0.00 0.00 1006.6
20260506134017 -17 0.0 0.0 0.00 0.00 0.00 1006.6
20260506133515 -17 0.0 0.0 0.00 0.00 0.00 1006.6
20260506133015 -17 0.0 0.0 0.00 0.00 0.00 1006.5
20260506132513 -17 0.0 0.0 0.00 0.00 0.00 1006.6
20260506132016 -17 0.0 0.0 0.00 0.00 0.00 1006.7
20260506131516 -17 0.0 0.0 0.00 0.00 0.00 1006.8
20260506131006 -17 0.0 0.0 0.00 0.00 0.00 1006.8
20260506130504 -17 0.0 0.0 0.00 0.00 0.00 1006.7
20260506130003 -17 0.0 0.0 0.00 0.00 0.00 1006.7
20260506125502 -17 0.0 0.0 0.00 0.00 0.00 1006.7
20260506125059 -17 0.0 0.0 0.00 0.00 0.00 1006.6
20260506124558 -17 0.0 0.0 0.00 0.00 0.00 1006.7
20260506124056 -17 0.0 0.0 0.00 0.00 0.00 1006.7
20260506123555 -17 0.0 0.0 0.00 0.00 0.00 1006.8
20260506123054 -17 0.0 0.0 0.00 0.00 0.00 1006.8
20260506122553 -17 0.0 0.0 0.00 0.00 0.00 1006.9
20260506122050 -17 0.0 0.0 0.00 0.00 0.00 1007.0
20260506121559 -17 0.0 0.0 0.00 0.00 0.00 1007.1
20260506121048 -17 0.0 0.0 0.00 0.00 0.00 1007.1
20260506120517 -17 0.0 0.0 0.00 0.00 0.00 1007.2
20260506120015 -17 0.0 0.0 0.00 0.00 0.00 1007.3
20260506115515 -17 0.0 0.0 0.00 0.00 0.00 1007.3
20260506115012 -17 0.0 0.0 0.00 0.00 0.00 1007.3
20260506114512 -17 0.0 0.0 0.00 0.00 0.00 1007.2
20260506114010 16 5 0.0 0.0 0.00 0.00 0.00 77 1007.1
20260506113540 16 5 0.0 0.0 0.00 0.00 0.00 77 1006.9
20260506113039 17 150 0.0 0.0 0.00 0.00 0.00 76 1006.7
20260506112539 18 149 0.0 0.0 0.00 0.00 0.00 75 1006.6
20260506112036 18 183 0.0 0.0 0.00 0.00 0.00 74 1006.7
20260506111536 18 150 0.0 0.0 0.00 0.00 0.00 73 1006.7
20260506111034 18 185 0.0 0.0 0.00 0.00 0.00 72 1006.6
20260506110532 18 168 0.0 0.0 0.00 0.00 0.00 70 1006.5
20260506110030 18 186 0.0 0.0 0.00 0.00 0.00 69 1006.5
20260506105529 18 191 0.0 0.0 0.00 0.00 0.00 67 1006.4
20260506105027 18 152 0.0 0.0 0.00 0.00 0.00 67 1006.4
20260506104526 18 181 0.0 0.0 0.00 0.00 0.00 65 1006.3
20260506104026 19 184 0.0 0.0 0.00 0.00 0.00 65 1006.2
20260506103525 19 184 0.0 0.0 0.00 0.00 0.00 64 1006.2
20260506103029 19 169 0.0 0.0 0.00 0.00 0.00 64 1006.1
20260506102523 19 186 0.0 0.0 0.00 0.00 0.00 63 1006.1
20260506102023 19 194 0.0 0.0 0.00 0.00 0.00 63 1006.0
20260506101524 19 204 0.0 0.0 0.00 0.00 0.00 63 1006.0
20260506101023 19 148 0.0 0.0 0.00 0.00 0.00 62 1005.9
20260506100520 19 107 0.0 0.0 0.00 0.00 0.00 62 1005.9
20260506100022 19 209 0.0 0.0 0.00 0.00 0.00 62 1005.9
20260506095520 19 214 0.0 0.0 0.00 0.00 0.00 61 1005.8
20260506095019 19 199 0.0 0.0 0.00 0.00 0.00 62 1005.8
20260506094529 19 120 0.0 0.0 0.00 0.00 0.00 61 1005.7
20260506094018 19 151 0.0 0.0 0.00 0.00 0.00 61 1005.6
20260506093517 19 173 0.0 0.0 0.00 0.00 0.00 61 1005.8
20260506093029 19 167 0.0 0.0 0.00 0.00 0.00 61 1005.8
20260506092516 20 210 0.0 0.0 0.00 0.00 0.00 60 1005.8
20260506092015 20 196 0.0 0.0 0.00 0.00 0.00 60 1005.9
20260506091515 20 248 0.0 0.0 0.00 0.00 0.00 60 1006.0
20260506091015 20 148 0.0 0.0 0.00 0.00 0.00 59 1006.0
20260506090512 20 277 0.0 0.0 0.00 0.00 0.00 59 1006.0
20260506090013 20 150 0.0 0.0 0.00 0.00 0.00 59 1006.1
20260506085511 20 148 0.0 0.0 0.00 0.00 0.00 59 1006.1
20260506085010 20 184 0.0 0.0 0.00 0.00 0.00 58 1006.1
20260506084510 20 179 0.0 0.0 0.00 0.00 0.00 58 1006.2
20260506084010 20 191 0.0 0.0 0.00 0.00 0.00 58 1006.2
20260506083512 20 240 0.0 0.0 0.00 0.00 0.00 58 1006.2
20260506083009 20 211 0.0 0.0 0.00 0.00 0.00 58 1006.1
20260506082513 20 209 0.0 0.0 0.00 0.00 0.00 58 1006.1
20260506082009 20 134 0.0 0.0 0.00 0.00 0.00 58 1006.1
20260506081508 20 134 0.0 0.0 0.00 0.00 0.00 57 1006.1
20260506081007 20 140 0.0 0.0 0.00 0.00 0.00 57 1006.2
20260506080505 20 180 0.0 0.0 0.00 0.00 0.00 57 1006.1
20260506073502 20 183 0.0 0.0 0.00 0.00 0.00 55 1006.1
20260506073002 20 217 0.0 0.0 0.00 0.00 0.00 55 1006.1
20260506072502 20 147 0.0 0.0 0.00 0.00 0.00 55 1006.2
20260506072101 20 192 0.0 0.0 0.00 0.00 0.00 55 1006.2
20260506071602 20 136 0.0 0.0 0.00 0.00 0.00 54 1006.3
20260506071059 20 232 0.0 0.0 0.00 0.00 0.00 55 1006.3
20260506070559 20 191 0.0 0.0 0.00 0.00 0.00 54 1006.4